EW5962 Weather Reports


Display with metric or nautical units.
time (UTC)temp
F
wind
direction
speed
MPH
gust
MPH
rain 1hr
in
rain 24hr
in
rain mn
in
humidity
%
barometer
mb
20260506141009 65 219 0.0 0.0 0.00 0.00 0.00 74 1011.9
20260506140605 65 202 0.0 0.0 0.00 0.00 0.00 74 1011.8
20260506140004 65 170 0.0 0.0 0.00 0.00 0.00 75 1011.8
20260506135508 65 159 0.0 1.0 0.00 0.00 0.00 74 1011.9
20260506135103 65 150 0.0 1.0 0.00 0.00 0.00 74 1011.8
20260506134503 65 174 0.0 1.0 0.00 0.00 0.00 74 1011.8
20260506134010 65 174 0.0 1.0 0.00 0.00 0.00 74 1011.8
20260506133603 65 171 0.0 0.0 0.00 0.00 0.00 75 1011.8
20260506133003 65 169 0.0 0.0 0.00 0.00 0.00 74 1011.8
20260506132511 65 233 0.0 0.0 0.00 0.00 0.00 74 1011.5
20260506132103 65 179 0.0 0.0 0.00 0.00 0.00 75 1011.3
20260506131502 64 174 0.0 2.0 0.00 0.00 0.00 75 1011.7
20260506131010 64 187 0.0 1.0 0.00 0.00 0.00 76 1011.7
20260506130606 64 187 0.0 0.0 0.00 0.00 0.00 76 1011.5
20260506130005 63 172 0.0 1.0 0.00 0.00 0.00 75 1011.6
20260506125510 63 141 0.0 1.0 0.00 0.00 0.00 76 1011.9
20260506125103 63 188 0.0 1.0 0.00 0.00 0.00 77 1012.0
20260506124503 63 182 0.0 1.0 0.00 0.00 0.00 77 1012.0
20260506124008 63 172 0.0 2.0 0.00 0.00 0.00 77 1012.2
20260506123603 63 200 0.0 2.0 0.00 0.00 0.00 77 1012.2
20260506123003 62 212 0.0 0.0 0.00 0.00 0.00 77 1012.1
20260506122510 62 148 0.0 1.0 0.00 0.00 0.00 77 1012.2
20260506122102 62 195 0.0 1.0 0.00 0.00 0.00 78 1012.4
20260506121503 62 179 0.0 1.0 0.00 0.00 0.00 78 1012.4
20260506121009 62 214 0.0 2.0 0.00 0.00 0.00 78 1012.3
20260506120605 62 171 0.0 2.0 0.00 0.00 0.00 78 1012.4
20260506120003 62 179 0.0 1.0 0.00 0.00 0.00 79 1012.4
20260506115514 62 205 0.0 0.0 0.00 0.00 0.00 79 1012.4
20260506115102 62 173 0.0 0.0 0.00 0.00 0.00 79 1012.2
20260506114502 61 185 0.0 2.0 0.00 0.00 0.00 80 1012.3
20260506114012 61 169 0.0 2.0 0.00 0.00 0.00 80 1012.2
20260506113603 61 248 0.0 0.0 0.00 0.00 0.00 80 1012.2
20260506113003 61 176 0.0 0.0 0.00 0.00 0.00 80 1012.0
20260506112509 61 212 0.0 0.0 0.00 0.00 0.00 80 1011.9
20260506112106 61 212 0.0 0.0 0.00 0.00 0.00 81 1012.0
20260506111503 60 211 0.0 0.0 0.00 0.00 0.00 80 1011.9
20260506111013 60 211 0.0 0.0 0.00 0.00 0.00 80 1011.9
20260506110603 60 208 0.0 0.0 0.00 0.00 0.00 80 1011.8
20260506110003 60 207 0.0 0.0 0.00 0.00 0.00 80 1011.4
20260506105511 60 207 0.0 0.0 0.00 0.00 0.00 80 1011.4
20260506105103 60 207 0.0 0.0 0.00 0.00 0.00 79 1011.5
20260506104502 60 207 0.0 0.0 0.00 0.00 0.00 79 1011.4
20260506104009 60 182 0.0 0.0 0.00 0.00 0.00 79 1011.3
20260506103602 61 182 0.0 0.0 0.00 0.00 0.00 78 1011.3
20260506103003 61 182 0.0 0.0 0.00 0.00 0.00 78 1011.3
20260506102509 61 176 0.0 0.0 0.00 0.00 0.00 78 1011.3
20260506102102 61 176 0.0 1.0 0.00 0.00 0.00 78 1011.3
20260506101504 61 150 0.0 1.0 0.00 0.00 0.00 77 1011.3
20260506101012 61 226 0.0 0.0 0.00 0.00 0.00 77 1011.3
20260506100602 61 177 0.0 0.0 0.00 0.00 0.00 77 1011.2
20260506100011 61 166 0.0 0.0 0.00 0.00 0.00 77 1011.2
20260506095510 61 190 0.0 0.0 0.00 0.00 0.00 77 1011.2
20260506095103 61 170 0.0 0.0 0.00 0.00 0.00 77 1011.3
20260506094505 61 186 0.0 0.0 0.00 0.00 0.00 77 1011.5
20260506094010 61 186 0.0 0.0 0.00 0.00 0.00 77 1011.3
20260506093602 61 187 0.0 0.0 0.00 0.00 0.00 77 1011.5
20260506093004 62 174 0.0 0.0 0.00 0.00 0.00 76 1011.4
20260506092510 62 183 0.0 0.0 0.00 0.00 0.00 76 1011.4
20260506092105 62 183 0.0 0.0 0.00 0.00 0.00 76 1011.6
20260506091504 62 183 0.0 0.0 0.00 0.00 0.00 76 1011.6
20260506091015 62 183 0.0 0.0 0.00 0.00 0.00 75 1011.6
20260506090604 62 177 0.0 0.0 0.00 0.00 0.00 75 1011.7
20260506090002 62 205 0.0 0.0 0.00 0.00 0.00 75 1011.8
20260506085511 62 165 0.0 0.0 0.00 0.00 0.00 75 1011.7
20260506085105 62 162 0.0 1.0 0.00 0.00 0.00 75 1011.9
20260506084503 62 198 0.0 1.0 0.00 0.00 0.00 75 1011.8
20260506084009 63 186 0.0 2.0 0.00 0.00 0.00 74 1011.8
20260506083603 63 217 0.0 2.0 0.00 0.00 0.00 74 1011.9
20260506083003 63 217 0.0 1.0 0.00 0.00 0.00 74 1011.8
20260506082516 63 176 0.0 0.0 0.00 0.00 0.00 74 1011.9
20260506082103 63 225 0.0 0.0 0.00 0.00 0.00 74 1011.8
20260506081506 63 167 0.0 2.0 0.00 0.00 0.00 74 1012.0
20260506081009 63 188 0.0 2.0 0.00 0.00 0.00 73 1011.9
20260506080606 63 202 0.0 1.0 0.00 0.00 0.00 73 1012.0
20260506073003 63 217 0.0 5.0 0.00 0.00 0.00 73 1011.7
20260506072509 63 140 0.0 0.0 0.00 0.00 0.00 73 1011.3
20260506072102 63 197 0.0 0.0 0.00 0.00 0.00 73 1011.7
20260506071502 63 181 0.0 3.0 0.00 0.00 0.00 73 1011.7
20260506071010 63 182 0.0 3.0 0.00 0.00 0.00 73 1011.8
20260506070602 64 193 0.0 12.0 0.00 0.00 0.00 73 1011.9
20260506062510 64 190 0.0 8.0 0.00 0.00 0.00 72 1012.3
20260506062104 64 180 0.0 5.0 0.00 0.00 0.00 72 1012.2
20260506061503 64 210 0.0 4.0 0.00 0.00 0.00 72 1012.2
20260506061009 64 240 0.0 2.0 0.00 0.00 0.00 71 1012.3
20260506060602 64 204 0.0 2.0 0.00 0.00 0.00 71 1012.3
20260506051008 65 169 0.0 5.0 0.00 0.00 0.00 67 1012.5
20260506050604 65 163 0.0 3.0 0.00 0.00 0.00 66 1012.3
20260506050109 65 155 0.0 0.0 0.00 0.00 0.00 66 1012.5
20260506045103 65 172 0.0 1.0 0.00 0.00 0.00 65 1012.6
20260506044506 65 191 0.0 0.0 0.00 0.00 0.00 64 1012.7
20260506044008 66 209 0.0 1.0 0.00 0.00 0.00 64 1012.6
20260506043602 66 160 0.0 1.0 0.00 0.00 0.00 63 1012.5
20260506043005 66 194 0.0 0.0 0.00 0.00 0.00 63 1012.5
20260506042509 66 170 0.0 1.0 0.00 0.00 0.00 62 1012.4
20260506042103 66 164 0.0 1.0 0.00 0.00 0.00 63 1012.4
20260506041503 66 214 0.0 0.0 0.00 0.00 0.00 62 1012.5
20260506041004 66 242 0.0 0.0 0.00 0.00 0.00 62 1012.5
20260506040503 67 179 0.0 0.0 0.00 0.00 0.00 62 1012.5
20260506040009 67 174 0.0 0.0 0.00 0.00 0.00 61 1012.4
20260506035602 67 184 0.0 1.0 0.00 0.00 0.00 61 1012.5
20260506035003 67 180 0.0 1.0 0.00 0.00 0.00 60 1012.4
20260506034510 67 202 0.0 1.0 0.00 0.00 0.00 60 1012.3
20260506034102 67 199 0.0 3.0 0.00 0.00 0.00 61 1012.2
20260506033504 67 172 0.0 3.0 0.00 0.00 0.00 60 1012.2
20260506033010 66 249 0.0 1.0 0.00 0.00 0.00 60 1012.3
20260506032603 66 224 0.0 0.0 0.00 0.00 0.00 60 1012.3
20260506032003 66 173 0.0 0.0 0.00 0.00 0.00 61 1012.2
20260506031513 66 186 0.0 1.0 0.00 0.00 0.00 62 1012.3
20260506031104 66 183 0.0 3.0 0.00 0.00 0.00 60 1012.3
20260506030502 66 155 0.0 3.0 0.00 0.00 0.00 58 1012.3
20260506030009 66 167 0.0 0.0 0.00 0.00 0.00 59 1012.3
20260506025603 66 167 0.0 0.0 0.00 0.00 0.00 59 1012.4
20260506025003 66 167 0.0 0.0 0.00 0.00 0.00 57 1012.4
20260506024509 66 167 0.0 0.0 0.00 0.00 0.00 57 1012.3
20260506024104 66 167 0.0 0.0 0.00 0.00 0.00 59 1012.5
20260506023501 66 159 0.0 0.0 0.00 0.00 0.00 57 1012.6
20260506023010 66 162 0.0 0.0 0.00 0.00 0.00 58 1012.7
20260506022604 66 161 0.0 0.0 0.00 0.00 0.00 58 1012.6
20260506022006 66 193 0.0 0.0 0.00 0.00 0.00 58 1012.6
20260506021509 66 193 0.0 0.0 0.00 0.00 0.00 59 1012.6
20260506021103 65 193 0.0 0.0 0.00 0.00 0.00 59 1012.6
20260506020503 65 193 0.0 0.0 0.00 0.00 0.00 59 1012.6
20260506020015 65 193 0.0 0.0 0.00 0.00 0.00 60 1012.5
20260506015602 66 193 0.0 0.0 0.00 0.00 0.00 60 1012.5
20260506015005 66 193 0.0 0.0 0.00 0.00 0.00 60 1012.5
20260506014508 66 193 0.0 0.0 0.00 0.00 0.00 60 1012.5
20260506014103 66 193 0.0 0.0 0.00 0.00 0.00 59 1012.5
20260506013502 66 193 0.0 0.0 0.00 0.00 0.00 60 1012.4
20260506013010 66 193 0.0 0.0 0.00 0.00 0.00 59 1012.3
20260506012604 66 193 0.0 0.0 0.00 0.00 0.00 59 1012.3
20260506012003 67 193 0.0 0.0 0.00 0.00 0.00 58 1012.3
20260506011516 67 193 0.0 0.0 0.00 0.00 0.00 58 1012.3
20260506011103 68 193 0.0 0.0 0.00 0.00 0.00 59 1012.3
20260506010506 68 193 0.0 0.0 0.00 0.00 0.00 58 1012.1
20260506010024 68 193 0.0 0.0 0.00 0.00 0.00 55 1012.1
20260506005603 69 193 0.0 0.0 0.00 0.00 0.00 54 1012.0
20260506005002 69 193 0.0 0.0 0.00 0.00 0.00 54 1012.0
20260506004508 69 193 0.0 0.0 0.00 0.00 0.00 51 1011.8
20260506004102 70 193 0.0 0.0 0.00 0.00 0.00 53 1011.9
20260506003504 70 193 0.0 0.0 0.00 0.00 0.00 50 1011.9
20260506003009 71 192 0.0 0.0 0.00 0.00 0.00 50 1011.9
20260506002602 71 214 0.0 0.0 0.00 0.00 0.00 52 1011.8
20260506002002 72 214 0.0 0.0 0.00 0.00 0.00 48 1011.8
20260506001509 72 214 0.0 0.0 0.00 0.00 0.00 47 1011.8
20260506001103 72 214 0.0 0.0 0.00 0.00 0.00 46 1011.8
20260506000502 73 214 0.0 0.0 0.00 0.00 0.00 46 1011.8
20260506000013 73 214 0.0 0.0 0.00 0.00 0.00 45 1011.7
20260505235603 73 214 0.0 0.0 0.00 0.00 0.00 46 1011.7
20260505235003 73 175 0.0 0.0 0.00 0.00 0.00 45 1011.7
20260505234508 74 241 0.0 2.0 0.00 0.00 0.00 44 1011.5
20260505234103 74 241 0.0 2.0 0.00 0.00 0.00 44 1011.4
20260505233503 74 212 0.0 2.0 0.00 0.00 0.00 43 1011.4
20260505233011 74 181 0.0 2.0 0.00 0.00 0.00 43 1011.4
20260505232604 74 198 0.0 5.0 0.00 0.00 0.00 42 1011.4
20260505232002 74 202 0.0 5.0 0.00 0.00 0.00 42 1011.3
20260505231103 75 166 0.0 2.0 0.00 0.00 0.00 41 1011.2
20260505230502 75 167 0.0 7.0 0.00 0.00 0.00 40 1011.3
20260505230009 75 209 0.0 7.0 0.00 0.00 0.00 40 1011.2
20260505225603 76 194 0.0 1.0 0.00 0.00 0.00 40 1011.3
20260505225002 76 169 0.0 5.0 0.00 0.00 0.00 39 1011.4
20260505224508 76 190 0.0 10.0 0.00 0.00 0.00 39 1011.4
20260505224104 76 222 0.0 14.0 0.00 0.00 0.00 38 1011.5
20260505223502 76 185 0.0 9.0 0.00 0.00 0.00 39 1011.5
20260505223009 76 180 0.0 7.0 0.00 0.00 0.00 39 1011.4
20260505222603 77 186 0.0 4.0 0.00 0.00 0.00 39 1011.4
20260505222002 77 184 0.0 4.0 0.00 0.00 0.00 39 1011.5
20260505221509 77 224 0.0 10.0 0.00 0.00 0.00 39 1011.6
20260505221103 77 191 0.0 10.0 0.00 0.00 0.00 38 1011.6
20260505220502 77 148 1.0 12.0 0.00 0.00 0.00 37 1011.7
20260505220009 77 151 1.0 12.0 0.00 0.00 0.00 38 1011.8
20260505215604 77 196 0.0 5.0 0.00 0.00 0.00 36 1011.8
20260505215003 78 176 0.0 14.0 0.00 0.00 0.00 37 1011.6
20260505214508 78 194 3.0 14.0 0.00 0.00 0.00 37 1011.7
20260505214102 78 195 1.0 14.0 0.00 0.00 0.00 38 1011.7
20260505213502 78 217 0.0 9.0 0.00 0.00 0.00 38 1011.7
20260505213019 78 221 2.0 11.0 0.00 0.00 0.00 39 1011.7
20260505212603 78 205 3.0 11.0 0.00 0.00 0.00 40 1011.5
20260505212003 78 198 1.0 10.0 0.00 0.00 0.00 38 1011.5
20260505211509 78 174 0.0 11.0 0.00 0.00 0.00 40 1011.6
20260505211106 79 164 1.0 11.0 0.00 0.00 0.00 38 1011.8
20260505210502 79 222 0.0 12.0 0.00 0.00 0.00 37 1012.0
20260505210009 80 209 0.0 12.0 0.00 0.00 0.00 36 1012.0
20260505205602 80 159 0.0 12.0 0.00 0.00 0.00 35 1012.0
20260505205002 81 202 2.0 15.0 0.00 0.00 0.00 34 1012.0
20260505204509 81 176 2.0 15.0 0.00 0.00 0.00 34 1012.0
20260505204102 81 210 1.0 12.0 0.00 0.00 0.00 35 1012.0
20260505203502 81 224 0.0 18.0 0.00 0.00 0.00 34 1012.0
20260505203018 81 212 4.0 18.0 0.00 0.00 0.00 34 1012.0
20260505202603 81 183 0.0 7.0 0.00 0.00 0.00 34 1011.9
20260505202006 81 154 1.0 7.0 0.00 0.00 0.00 35 1012.0
20260505201511 81 153 0.0 10.0 0.00 0.00 0.00 34 1011.9
20260505201102 80 157 0.0 11.0 0.00 0.00 0.00 37 1012.1
20260505200503 80 155 1.0 11.0 0.00 0.00 0.00 36 1012.1
20260505200008 80 195 0.0 15.0 0.00 0.00 0.00 35 1012.2
20260505195602 81 186 1.0 15.0 0.00 0.00 0.00 35 1012.2
20260505195002 81 194 2.0 12.0 0.00 0.00 0.00 33 1012.4
20260505194509 81 184 1.0 8.0 0.00 0.00 0.00 34 1012.5
20260505194103 82 283 3.0 14.0 0.00 0.00 0.00 32 1012.5
20260505193502 81 208 3.0 14.0 0.00 0.00 0.00 33 1012.6
20260505193010 81 224 2.0 7.0 0.00 0.00 0.00 36 1012.5
20260505192602 81 162 0.0 6.0 0.00 0.00 0.00 34 1012.6
20260505192005 81 167 0.0 6.0 0.00 0.00 0.00 36 1012.8
20260505191508 81 141 0.0 19.0 0.00 0.00 0.00 36 1012.7
20260505191103 81 164 1.0 19.0 0.00 0.00 0.00 35 1012.8
20260505190504 81 202 4.0 16.0 0.00 0.00 0.00 37 1013.0
20260505190008 81 143 1.0 7.0 0.00 0.00 0.00 36 1013.1
20260505185604 81 172 0.0 11.0 0.00 0.00 0.00 38 1013.1
20260505185003 80 167 0.0 14.0 0.00 0.00 0.00 36 1013.2
20260505184509 80 129 2.0 14.0 0.00 0.00 0.00 36 1013.4
20260505184102 80 151 3.0 18.0 0.00 0.00 0.00 37 1013.5
20260505183503 80 156 1.0 18.0 0.00 0.00 0.00 36 1013.7
20260505183009 80 194 0.0 11.0 0.00 0.00 0.00 38 1013.7
20260505182602 80 154 1.0 11.0 0.00 0.00 0.00 38 1013.7
20260505182002 79 143 0.0 9.0 0.00 0.00 0.00 37 1013.8
20260505181509 79 174 1.0 9.0 0.00 0.00 0.00 40 1013.8
20260505181104 79 194 0.0 6.0 0.00 0.00 0.00 38 1013.8
20260505180502 79 214 0.0 6.0 0.00 0.00 0.00 41 1013.9
20260505180009 79 171 0.0 6.0 0.00 0.00 0.00 41 1013.9
20260505175602 79 226 0.0 5.0 0.00 0.00 0.00 42 1013.9
20260505175004 78 165 1.0 4.0 0.00 0.00 0.00 41 1014.1
20260505174508 78 209 0.0 2.0 0.00 0.00 0.00 42 1014.0
20260505174104 78 183 0.0 6.0 0.00 0.00 0.00 40 1014.0
20260505173503 78 142 0.0 9.0 0.00 0.00 0.00 42 1014.1
20260505173008 78 135 0.0 9.0 0.00 0.00 0.00 40 1014.1
20260505172605 77 201 0.0 9.0 0.00 0.00 0.00 41 1014.1
20260505172003 77 162 0.0 11.0 0.00 0.00 0.00 45 1014.3
20260505171509 77 219 0.0 5.0 0.00 0.00 0.00 42 1014.2
20260505171104 77 204 0.0 5.0 0.00 0.00 0.00 42 1014.4
20260505170504 78 157 0.0 10.0 0.00 0.00 0.00 40 1014.4
20260505170016 78 146 2.0 9.0 0.00 0.00 0.00 41 1014.4
20260505165603 78 147 0.0 8.0 0.00 0.00 0.00 41 1014.4
20260505165002 79 188 1.0 7.0 0.00 0.00 0.00 40 1014.4
20260505164509 78 235 0.0 2.0 0.00 0.00 0.00 43 1014.5
20260505164103 78 191 0.0 3.0 0.00 0.00 0.00 44 1014.5
20260505163502 78 143 0.0 3.0 0.00 0.00 0.00 44 1014.5
20260505163011 78 183 0.0 2.0 0.00 0.00 0.00 45 1014.5
20260505162603 77 194 0.0 3.0 0.00 0.00 0.00 47 1014.6
20260505162003 77 224 0.0 4.0 0.00 0.00 0.00 44 1014.6
20260505161509 77 192 0.0 1.0 0.00 0.00 0.00 45 1014.6
20260505161102 77 181 0.0 5.0 0.00 0.00 0.00 49 1014.7
20260505160503 76 152 0.0 13.0 0.00 0.00 0.00 49 1014.8
20260505153008 74 171 0.0 5.0 0.00 0.00 0.00 51 1015.0
20260505152602 74 154 0.0 5.0 0.00 0.00 0.00 54 1014.9
20260505152004 74 195 0.0 2.0 0.00 0.00 0.00 53 1015.1
20260505151509 73 198 0.0 8.0 0.00 0.00 0.00 54 1015.0
20260505151105 73 174 0.0 8.0 0.00 0.00 0.00 53 1015.0
20260505150505 73 195 0.0 2.0 0.00 0.00 0.00 55 1015.0